User: anonymous   Login
Location: Unspecified
(0.0000°N, 0.0000°E)
Time: 09:49:49
(UTC+02:00)
Language:

Ariane H10 - Orbit

View from above orbital plane
View from above orbital plane
View from above satellite
View from above satellite

Ground track
Ground track

The orbit data is extracted from the following two-line orbital elements,

1 19622U 88098B   15245.42568647 +.00007998 +00000-0 +12606-2 0  9992
2 19622 003.7911 246.5230 6452980 092.8870 019.0955 03.39630501281889
Epoch (UTC): 02 September 2015 10:12:59
Eccentricity: 0.6452980
inclination: 3.7911°
perigee height: 253 km
apogee height: 24381 km
right ascension of ascending node: 246.5230°
argument of perigee: 92.8870°
revolutions per day: 3.39630501
mean anomaly at epoch: 19.0955°
orbit number at epoch: 28188

The dashed part of the orbit path shows where the satellite is in the earth's shadow,  

DLR